This demonstration page uses our WeatherBlox Daily Observations layout. Learn more.

Left ArrowRight Arrow

38.80484, -77.04692

Hourly Observations for November 2, 2021

Temp ( °F °C ) Dew Point ( °F °C ) Humidity (%) Winds ( mph kmh ) Pressure ( in mb ) Visibility ( mi km ) Precip ( " mm )
12:52 am 00:52 Mostly Cloudy 49 9.4 40 4.4 71 71 WSW 5 7 30.24 1024 10 16 N/A
1:52 am 01:52 Cloudy 50 10 41 5 71 71 N N/A 30.24 1024 10 16 N/A
2:52 am 02:52 Cloudy 48 8.9 42 5.6 80 80 NNW 6 9 30.23 1024 10 16 N/A
3:52 am 03:52 Cloudy 49 9.4 42 5.6 77 77 N 3 6 30.22 1023 10 16 N/A
4:52 am 04:52 Cloudy 50 10 42 5.6 74 74 N N/A 30.23 1024 10 16 N/A
5:52 am 05:52 Cloudy 51 10.6 41 5 69 69 N N/A 30.24 1024 10 16 N/A
6:52 am 06:52 Cloudy 51 10.6 41 5 69 69 N N/A 30.24 1024 10 16 N/A
7:52 am 07:52 Cloudy 51 10.6 40 4.4 66 66 NNW 6 9 30.25 1024 10 16 N/A
8:52 am 08:52 Cloudy 52 11.1 39 3.9 61 61 N 5 7 30.27 1025 10 16 N/A
9:52 am 09:52 Cloudy with Light Rain 51 10.6 39 3.9 64 64 NNW 13 20 30.29 1026 10 16 0.01 0.25
10:52 am 10:52 Cloudy 51 10.6 41 5 69 69 NNW 10 17 30.29 1026 10 16 0.00 0.00
11:52 am 11:52 Cloudy with Light Rain 50 10 43 6.1 77 77 N 10 17 30.29 1026 10 16 0.00 0.00
12:52 pm 12:52 Cloudy with Light Rain 49 9.4 43 6.1 80 80 N 12 19 30.27 1025 9 14 0.01 0.25
1:52 pm 13:52 Cloudy with Light Rain 48 8.9 43 6.1 83 83 NNW 8 13 30.25 1024 8 13 0.02 0.51
2:27 pm 14:27 Cloudy with Light Rain 49 9.4 43 6.1 80 80 N 7 11 30.24 1024 8 13 0.02 0.51
2:52 pm 14:52 Cloudy with Light Rain 49 9.4 43 6.1 80 80 NNW 8 13 30.23 1024 10 16 0.03 0.76
3:52 pm 15:52 Cloudy with Light Rain 48 8.9 42 5.6 80 80 NNW 8 13 30.23 1024 10 16 0.01 0.25
3:54 pm 15:54 Cloudy with Light Rain 48 8.9 42 5.6 80 80 NNW 9 15 30.24 1024 10 16 0.01 0.25
4:52 pm 16:52 Cloudy with Light Rain 48 8.9 42 5.6 80 80 NW 5 7 30.23 1024 10 16 0.02 0.51
5:37 pm 17:37 Cloudy 48 8.9 43 6.1 83 83 N 7 11 30.24 1024 10 16 0.00 0.00
5:52 pm 17:52 Cloudy 48 8.9 42 5.6 80 80 NW 6 9 30.24 1024 10 16 0.00 0.00
6:52 pm 18:52 Cloudy 48 8.9 42 5.6 80 80 NNW 6 9 30.25 1024 10 16 N/A
7:52 pm 19:52 Cloudy 48 8.9 42 5.6 80 80 WSW 3 6 30.26 1025 10 16 N/A
8:52 pm 20:52 Clear 47 8.3 43 6.1 86 86 WSW 3 6 30.27 1025 10 16 N/A
9:52 pm 21:52 Partly Cloudy 46 7.8 42 5.6 86 86 W 5 7 30.27 1025 10 16 N/A
10:52 pm 22:52 Clear 46 7.8 41 5 83 83 N N/A 30.29 1026 10 16 N/A
11:52 pm 23:52 Clear 44 6.7 38 3.3 79 79 N 6 9 30.28 1025 10 16 N/A

Powered by AerisWeather